Alkin Kalkavan — TCOL6 — position and weather

sailwx.info

Track history (hours):
 
Tides and Currents Weather Stations Pressure Air Temp Water Temp Dewpoint Dewpoint Depression Visibility Wind Speed Wind Dir Waves Ship Positions

Alkin Kalkavan

Last reported at 2014-Sep-30 20:28 UTC. Time now 2014-Oct-01 04:07 UTC.
Position N 32°58' E 034°28'.

Length 148 m; draft 7 m.

Type: Ship. MMSI: 271000905.

Date/timePositionNaut miles runAvg speedWind from/ knotsBaromVisibWave heightAir tempDewpointWater temp
2014-Sep-30 20:28N 32°58' E 034°28'1314.2
2014-Sep-30 19:33N 32°55' E 034°43'11 0.5
2014-Sep-29 20:33N 32°45' E 034°48'1615.5
2014-Sep-29 19:33N 32°30' E 034°43'1515.1
2014-Sep-29 18:33N 32°16' E 034°38'  
2014-Sep-23 04:33N 40°39' E 028°36'1414.2
2014-Sep-23 03:33N 40°41' E 028°54'1413.8
2014-Sep-23 02:33N 40°43' E 029°12'1312.5
2014-Sep-23 01:29N 40°45' E 029°30'9 9.8
2014-Sep-23 00:33N 40°46' E 029°42'1 0.1
2014-Sep-22 08:33N 40°46' E 029°41'1413.8
2014-Sep-22 07:32N 40°44' E 029°23'1212.4
2014-Sep-22 06:33N 40°48' E 029°07'4 3.6
2014-Sep-22 05:32N 40°49' E 029°03'1 0.6
2014-Sep-22 04:33N 40°49' E 029°04'1 0.8
2014-Sep-22 03:31N 40°48' E 029°04'1 0.6
2014-Sep-22 02:33N 40°48' E 029°04'1 0.7
2014-Sep-22 01:33N 40°47' E 029°04'1 0.6
2014-Sep-22 00:33N 40°46' E 029°04'1 0.6
2014-Sep-21 23:33N 40°46' E 029°04'0 0.4
2014-Sep-21 22:33N 40°45' E 029°03'9 9.5
2014-Sep-21 21:33N 40°47' E 028°51'1310.6
2014-Sep-21 20:20N 40°58' E 028°41'0 0.0
2014-Sep-21 15:28N 40°58' E 028°41'0 0.0
2014-Sep-21 13:21N 40°58' E 028°41'0 0.0
2014-Sep-21 12:21N 40°58' E 028°41'0 0.0
2014-Sep-21 11:33N 40°58' E 028°41'2 0.3
2014-Sep-21 03:24N 40°56' E 028°40'2412.8
2014-Sep-21 01:31N 40°32' E 028°45'1313.6
2014-Sep-21 00:33N 40°26' E 029°00'4 3.2
2014-Sep-20 23:22N 40°25' E 029°05'0 0.0
2014-Sep-20 22:28N 40°25' E 029°05'0 0.0
2014-Sep-20 21:21N 40°25' E 029°05'  
Track history (hours):
 
Tides and Currents Weather Stations Pressure Air Temp Water Temp Dewpoint Dewpoint Depression Visibility Wind Speed Wind Dir Waves Ship Positions

Alkin Kalkavan

Last reported at 2014-Sep-30 20:28 UTC. Time now 2014-Oct-01 04:07 UTC.
Position N 32°58' E 034°28'.

Length 148 m; draft 7 m.

Type: Ship. MMSI: 271000905.

Date/timePositionNaut miles runAvg speedWind from/ knotsBaromVisibWave heightAir tempDewpointWater temp
2014-Sep-30 20:28N 32°58' E 034°28'1314.2
2014-Sep-30 19:33N 32°55' E 034°43'11 0.5
2014-Sep-29 20:33N 32°45' E 034°48'1615.5
2014-Sep-29 19:33N 32°30' E 034°43'1515.1
2014-Sep-29 18:33N 32°16' E 034°38'  
2014-Sep-23 04:33N 40°39' E 028°36'1414.2
2014-Sep-23 03:33N 40°41' E 028°54'1413.8
2014-Sep-23 02:33N 40°43' E 029°12'1312.5
2014-Sep-23 01:29N 40°45' E 029°30'9 9.8
2014-Sep-23 00:33N 40°46' E 029°42'1 0.1
2014-Sep-22 08:33N 40°46' E 029°41'1413.8
2014-Sep-22 07:32N 40°44' E 029°23'1212.4
2014-Sep-22 06:33N 40°48' E 029°07'4 3.6
2014-Sep-22 05:32N 40°49' E 029°03'1 0.6
2014-Sep-22 04:33N 40°49' E 029°04'1 0.8
2014-Sep-22 03:31N 40°48' E 029°04'1 0.6
2014-Sep-22 02:33N 40°48' E 029°04'1 0.7
2014-Sep-22 01:33N 40°47' E 029°04'1 0.6
2014-Sep-22 00:33N 40°46' E 029°04'1 0.6
2014-Sep-21 23:33N 40°46' E 029°04'0 0.4
2014-Sep-21 22:33N 40°45' E 029°03'9 9.5
2014-Sep-21 21:33N 40°47' E 028°51'1310.6
2014-Sep-21 20:20N 40°58' E 028°41'0 0.0
2014-Sep-21 15:28N 40°58' E 028°41'0 0.0
2014-Sep-21 13:21N 40°58' E 028°41'0 0.0
2014-Sep-21 12:21N 40°58' E 028°41'0 0.0
2014-Sep-21 11:33N 40°58' E 028°41'2 0.3
2014-Sep-21 03:24N 40°56' E 028°40'2412.8
2014-Sep-21 01:31N 40°32' E 028°45'1313.6
2014-Sep-21 00:33N 40°26' E 029°00'4 3.2
2014-Sep-20 23:22N 40°25' E 029°05'0 0.0
2014-Sep-20 22:28N 40°25' E 029°05'0 0.0
2014-Sep-20 21:21N 40°25' E 029°05'  

Dump ship's entire track history